Terug naar catalogus

COSMOS 382

ActiefMilitairMEO
NORAD 4786·PAYLOAD·🇷🇺 Russia

Gelanceerd Dec 2, 1970 vanaf Baikonur Cosmodrome

Loading…

Volgende Passages (komende 24 uur)

TLE

VersSource: Space-Track

Epoch: Sep 14, 2026, 05:16 UTC

1 04786U 70103A   26257.21955808 -.00000026  00000-0  00000-0 0  9995
2 04786  55.8605 197.2180 1366422  31.8547 107.9553  8.42040987716068

Volg COSMOS 382 in realtime met AllMySat

Download on the App Store